• In Uzbekistan
  • List of Countries
  • For 7 days
  • Water Temperature
  • Satellite Maps
  • Weather Map
  • Weather Widgets
  • user-avatar
    Login

    Hourly Weather Bad Berleburg

    Today, 22 November, Wednesday

    Time Temperature Precipitation Wind Pressure Humidity
    00:00 +4°C° 0 mm 4 mps 714 mmHg 90%
    01:00 +4°C° 0 mm 4 mps 714 mmHg 90%
    02:00 +4°C° 0 mm 4 mps 713 mmHg 90%
    03:00 +5°C° 0 mm 4 mps 713 mmHg 90%
    04:00 +5°C° 0 mm 4 mps 713 mmHg 90%
    05:00 +5°C° 0 mm 4 mps 713 mmHg 90%
    06:00 +5°C° 0 mm 4 mps 713 mmHg 90%
    07:00 +5°C° 0 mm 4 mps 713 mmHg 90%
    08:00 +5°C° 0 mm 4 mps 713 mmHg 89%
    09:00 +5°C° 0 mm 4 mps 713 mmHg 88%
    10:00 +5°C° 0 mm 4 mps 713 mmHg 87%
    11:00 +6°C° 0 mm 4 mps 713 mmHg 82%
    12:00 +7°C° 0 mm 4 mps 713 mmHg 78%
    13:00 +8°C° 0 mm 4 mps 713 mmHg 74%
    14:00 +7°C° 0 mm 4 mps 713 mmHg 75%
    15:00 +7°C° 0 mm 4 mps 712 mmHg 76%
    16:00 +8°C° 0 mm 3 mps 712 mmHg 77%
    17:00 +7°C° 0 mm 3 mps 712 mmHg 79%
    18:00 +5°C° 0 mm 3 mps 712 mmHg 80%
    19:00 +4°C° 0 mm 3 mps 711 mmHg 81%
    20:00 +4°C° 0 mm 3 mps 711 mmHg 80%
    21:00 +4°C° 0 mm 3 mps 711 mmHg 79%
    22:00 +4°C° 0 mm 3 mps 711 mmHg 78%
    23:00 +4°C° 0 mm 3 mps 711 mmHg 78%

    Tomorrow, 23 November, Thursday

    Time Temperature Precipitation Wind Pressure Humidity
    00:00 +4°C° 0 mm 4 mps 710 mmHg 78%
    01:00 +3°C° 0 mm 4 mps 710 mmHg 77%
    02:00 +4°C° 0 mm 4 mps 710 mmHg 78%
    03:00 +4°C° 0 mm 4 mps 710 mmHg 79%
    04:00 +4°C° 0 mm 4 mps 709 mmHg 80%
    05:00 +3°C° 0 mm 5 mps 709 mmHg 81%
    06:00 +5°C° 0 mm 5 mps 709 mmHg 83%
    07:00 +5°C° 0 mm 5 mps 709 mmHg 84%
    08:00 +5°C° 0 mm 6 mps 710 mmHg 82%
    09:00 +7°C° 0 mm 6 mps 710 mmHg 79%
    10:00 +8°C° 0 mm 6 mps 710 mmHg 76%
    11:00 +9°C° 0 mm 7 mps 710 mmHg 74%
    12:00 +9°C° 0 mm 7 mps 711 mmHg 71%
    13:00 +10°C° 0 mm 7 mps 711 mmHg 68%
    14:00 +10°C° 0 mm 6 mps 711 mmHg 70%
    15:00 +10°C° 0 mm 6 mps 712 mmHg 72%
    16:00 +9°C° 0 mm 6 mps 712 mmHg 74%
    17:00 +9°C° 0.1 mm 5 mps 712 mmHg 77%
    18:00 +9°C° 0.1 mm 5 mps 713 mmHg 80%
    19:00 +9°C° 0.1 mm 5 mps 714 mmHg 83%
    20:00 +8°C° 0.1 mm 4 mps 714 mmHg 84%
    21:00 +8°C° 0.1 mm 4 mps 715 mmHg 86%
    22:00 +9°C° 0.1 mm 3 mps 715 mmHg 87%
    23:00 +8°C° 0 mm 3 mps 715 mmHg 89%

    Day after tomorrow, 24 November, Friday

    Time Temperature Precipitation Wind Pressure Humidity
    00:00 +8°C° 0 mm 2 mps 715 mmHg 91%
    01:00 +7°C° 0 mm 2 mps 715 mmHg 93%
    02:00 +7°C° 0 mm 3 mps 715 mmHg 92%
    03:00 +7°C° 0 mm 4 mps 714 mmHg 91%
    04:00 +7°C° 0 mm 4 mps 714 mmHg 90%
    05:00 +7°C° 0.3 mm 5 mps 714 mmHg 89%
    06:00 +7°C° 0.3 mm 5 mps 714 mmHg 89%
    07:00 +7°C° 0.3 mm 5 mps 713 mmHg 88%
    08:00 +7°C° 0.7 mm 5 mps 713 mmHg 87%
    09:00 +7°C° 0.7 mm 5 mps 714 mmHg 86%
    10:00 +7°C° 0.7 mm 5 mps 714 mmHg 85%
    11:00 +8°C° 0.4 mm 5 mps 714 mmHg 85%
    12:00 +8°C° 0.4 mm 5 mps 714 mmHg 85%
    13:00 +8°C° 0.4 mm 5 mps 714 mmHg 84%
    14:00 +8°C° 1 mm 4 mps 714 mmHg 86%
    15:00 +7°C° 1 mm 4 mps 714 mmHg 88%
    16:00 +7°C° 1 mm 4 mps 714 mmHg 90%
    17:00 +8°C° 0.3 mm 3 mps 714 mmHg 91%
    18:00 +8°C° 0.3 mm 3 mps 714 mmHg 92%
    19:00 +8°C° 0.3 mm 3 mps 714 mmHg 94%
    20:00 +8°C° 0.4 mm 2 mps 714 mmHg 94%
    21:00 +7°C° 0.4 mm 2 mps 714 mmHg 95%
    22:00 +7°C° 0.4 mm 2 mps 714 mmHg 95%
    23:00 +8°C° 0.8 mm 3 mps 713 mmHg 95%

    25 November, Saturday

    Time Temperature Precipitation Wind Pressure Humidity
    00:00 +8°C° 0.8 mm 3 mps 712 mmHg 94%
    01:00 +8°C° 0.8 mm 3 mps 711 mmHg 94%
    02:00 +8°C° 1.3 mm 3 mps 711 mmHg 93%
    03:00 +7°C° 1.3 mm 4 mps 710 mmHg 92%
    04:00 +7°C° 1.3 mm 4 mps 709 mmHg 91%
    05:00 +7°C° 0.9 mm 4 mps 708 mmHg 91%
    06:00 +7°C° 0.9 mm 4 mps 708 mmHg 91%
    07:00 +7°C° 0.9 mm 4 mps 707 mmHg 91%
    08:00 +7°C° 1.9 mm 4 mps 707 mmHg 92%
    09:00 +6°C° 1.9 mm 4 mps 707 mmHg 92%
    10:00 +5°C° 1.9 mm 4 mps 707 mmHg 93%
    11:00 +5°C° 0.8 mm 4 mps 707 mmHg 92%
    12:00 +4°C° 0.8 mm 4 mps 707 mmHg 91%
    13:00 +3°C° 0.8 mm 4 mps 708 mmHg 90%
    14:00 +3°C° 1.5 mm 4 mps 709 mmHg 89%
    15:00 +1°C° 1.5 mm 5 mps 709 mmHg 89%
    16:00 +1°C° 1.5 mm 6 mps 710 mmHg 88%
    17:00 +1°C° 0.8 mm 6 mps 712 mmHg 85%
    18:00 -1°C° 0.8 mm 6 mps 713 mmHg 82%
    19:00 -1°C° 0.8 mm 6 mps 715 mmHg 79%
    20:00 -1°C° 0.1 mm 6 mps 715 mmHg 80%
    21:00 -1°C° 0.1 mm 5 mps 716 mmHg 81%
    22:00 -1°C° 0.1 mm 5 mps 717 mmHg 81%
    23:00 -2°C° 0 mm 5 mps 717 mmHg 82%

    26 November, Sunday

    Time Temperature Precipitation Wind Pressure Humidity
    00:00 -2°C° 0 mm 5 mps 717 mmHg 82%
    01:00 -2°C° 0 mm 5 mps 717 mmHg 82%
    02:00 -2°C° 0 mm 5 mps 717 mmHg 83%
    03:00 -2°C° 0 mm 5 mps 717 mmHg 83%
    04:00 -4°C° 0 mm 5 mps 717 mmHg 83%
    05:00 -4°C° 0 mm 5 mps 717 mmHg 83%
    06:00 -4°C° 0 mm 5 mps 717 mmHg 84%
    07:00 -4°C° 0 mm 5 mps 717 mmHg 84%
    08:00 -4°C° 0 mm 5 mps 718 mmHg 81%
    09:00 -3°C° 0 mm 6 mps 718 mmHg 78%
    10:00 -3°C° 0 mm 6 mps 718 mmHg 75%
    11:00 -2°C° 0.1 mm 6 mps 718 mmHg 75%
    12:00 -2°C° 0.1 mm 6 mps 718 mmHg 75%
    13:00 -1°C° 0.1 mm 6 mps 718 mmHg 76%
    14:00 -1°C° 0.2 mm 6 mps 718 mmHg 78%
    15:00 -1°C° 0.2 mm 6 mps 718 mmHg 79%
    16:00 0°C° 0.2 mm 5 mps 718 mmHg 81%
    17:00 0°C° 0.4 mm 5 mps 719 mmHg 82%
    18:00 0°C° 0.4 mm 5 mps 719 mmHg 84%
    19:00 0°C° 0.4 mm 5 mps 719 mmHg 85%
    20:00 0°C° 0.2 mm 5 mps 719 mmHg 85%
    21:00 -1°C° 0.2 mm 5 mps 719 mmHg 86%
    22:00 -1°C° 0.2 mm 4 mps 719 mmHg 86%
    23:00 -1°C° 0.1 mm 4 mps 719 mmHg 87%

    27 November, Monday

    Time Temperature Precipitation Wind Pressure Humidity
    00:00 -1°C° 0.1 mm 4 mps 719 mmHg 88%
    01:00 -2°C° 0.1 mm 4 mps 719 mmHg 88%
    02:00 -2°C° 0 mm 4 mps 720 mmHg 89%
    03:00 -2°C° 0 mm 4 mps 720 mmHg 89%
    04:00 -2°C° 0 mm 4 mps 720 mmHg 89%
    05:00 -2°C° 0 mm 4 mps 720 mmHg 89%
    06:00 -2°C° 0 mm 4 mps 720 mmHg 89%
    07:00 -2°C° 0 mm 4 mps 720 mmHg 89%
    08:00 -2°C° 0.1 mm 4 mps 721 mmHg 88%
    09:00 -1°C° 0.1 mm 4 mps 721 mmHg 87%
    10:00 -1°C° 0.1 mm 4 mps 721 mmHg 86%
    11:00 -1°C° 0 mm 4 mps 721 mmHg 84%
    12:00 0°C° 0 mm 4 mps 720 mmHg 82%
    13:00 0°C° 0 mm 4 mps 720 mmHg 80%
    14:00 0°C° 0 mm 4 mps 720 mmHg 81%
    15:00 0°C° 0 mm 4 mps 719 mmHg 82%
    16:00 +1°C° 0 mm 3 mps 719 mmHg 83%
    17:00 -1°C° 0 mm 4 mps 718 mmHg 85%
    18:00 -1°C° 0 mm 4 mps 718 mmHg 87%
    19:00 -1°C° 0 mm 4 mps 717 mmHg 89%
    20:00 -1°C° 0 mm 4 mps 716 mmHg 88%
    21:00 -1°C° 0 mm 4 mps 716 mmHg 88%
    22:00 -1°C° 0 mm 4 mps 715 mmHg 87%
    23:00 -1°C° 0 mm 4 mps 714 mmHg 88%
    Show more